Terminal Aerodrome Forecast
Issued by NWS Goodland, KS

Home | Current Version | Previous Version | Text Only | Print | Product List | Glossary On
Versions: 1 2 3 4 5 6 7 8 9 10 11 12 13 14 15 16 17 18
000
FTUS43 KGLD 092320
TAFGLD
TAF
KGLD 092320Z 1000/1024 17007KT P6SM SCT150
     FM100600 20007KT P6SM SCT030
     FM101000 17008KT 3SM BR BKN020
     FM101500 20008KT P6SM SCT020 SCT200=

USA.gov is the U.S. government's official web portal to all federal, state and local government web resources and services.